| time (UTC) | temp F | wind direction | speed knots | gust knots | rain 1hr in | rain 24hr in | rain mn in | humidity % | barometer mb |
| 20260507100606 | 30 | 0 | 0.0 | 0.0 | 0.00 | 0.09 | 0.00 | 44 | 1033.2 |
| 20260507100111 | 30 | 0 | 0.0 | 0.9 | 0.00 | 0.09 | 0.00 | 44 | 1033.1 |
| 20260507090605 | 29 | 0 | 0.0 | 0.0 | 0.00 | 0.09 | 0.00 | 46 | 1033.2 |
| 20260507090110 | 29 | 0 | 0.0 | 0.0 | 0.00 | 0.09 | 0.00 | 46 | 1033.3 |
| 20260507080605 | 31 | 0 | 0.0 | 0.0 | 0.00 | 0.09 | 0.00 | 42 | 1032.9 |
| 20260507070609 | 29 | 0 | 0.0 | 0.0 | 0.00 | 0.09 | 0.00 | 47 | 1033.3 |
| 20260507070110 | 28 | 0 | 0.0 | 0.0 | 0.00 | 0.09 | 0.00 | 48 | 1033.4 |
| 20260507060110 | 31 | 0 | 0.0 | 0.0 | 0.00 | 0.09 | 0.00 | 40 | 1032.7 |
| 20260507050607 | 33 | 0 | 0.0 | 0.0 | 0.00 | 0.09 | 0.09 | 36 | 1032.5 |
| 20260507050113 | 33 | 0 | 0.0 | 0.0 | 0.00 | 0.09 | 0.09 | 36 | 1032.5 |
| 20260507040607 | 34 | 0 | 0.0 | 0.0 | 0.00 | 0.09 | 0.09 | 32 | 1031.9 |
| 20260507040115 | 34 | 0 | 0.0 | 0.0 | 0.00 | 0.09 | 0.09 | 32 | 1032.0 |
| 20260507030607 | 40 | 0 | 0.0 | 2.6 | 0.00 | 0.09 | 0.09 | 23 | 1030.8 |
| 20260507020607 | 43 | 0 | 1.7 | 7.0 | 0.00 | 0.09 | 0.09 | 17 | 1030.0 |
| 20260507020114 | 44 | 0 | 2.6 | 7.0 | 0.00 | 0.09 | 0.09 | 16 | 1029.9 |
| 20260507010610 | 48 | 0 | 2.6 | 7.0 | 0.00 | 0.09 | 0.09 | 15 | 1028.7 |
| 20260507010112 | 49 | 0 | 4.3 | 7.0 | 0.00 | 0.09 | 0.09 | 14 | 1028.6 |
| 20260507000112 | 50 | 0 | 5.2 | 10.4 | 0.00 | 0.09 | 0.09 | 12 | 1027.8 |
| 20260506230607 | 50 | 0 | 5.2 | 11.3 | 0.00 | 0.09 | 0.09 | 13 | 1026.8 |
| 20260506230113 | 50 | 0 | 4.3 | 12.2 | 0.00 | 0.09 | 0.09 | 14 | 1026.9 |
| 20260506210607 | 49 | 0 | 7.8 | 15.6 | 0.00 | 0.09 | 0.09 | 20 | 1026.2 |
| 20260506200115 | 47 | 0 | 7.0 | 14.8 | 0.00 | 0.09 | 0.09 | 25 | 1025.6 |
| 20260506190607 | 46 | 0 | 6.1 | 12.2 | 0.00 | 0.09 | 0.09 | 33 | 1024.6 |
| 20260506190111 | 44 | 0 | 4.3 | 13.0 | 0.00 | 0.09 | 0.09 | 45 | 1024.8 |
| 20260506180607 | 45 | 0 | 4.3 | 11.3 | 0.00 | 0.09 | 0.09 | 58 | 1023.9 |
| 20260506180112 | 45 | 0 | 4.3 | 12.2 | 0.00 | 0.09 | 0.09 | 56 | 1023.8 |
| 20260506170607 | 40 | 0 | 2.6 | 7.0 | 0.00 | 0.09 | 0.09 | 80 | 1022.8 |
| 20260506170111 | 39 | 0 | 2.6 | 7.0 | 0.00 | 0.09 | 0.09 | 81 | 1022.9 |
| 20260506160112 | 36 | 0 | 5.2 | 10.4 | 0.06 | 0.09 | 0.09 | 81 | 1021.9 |
| 20260506150606 | 33 | 0 | 1.7 | 6.1 | 0.04 | 0.04 | 0.04 | 76 | 1021.7 |
| 20260506150112 | 34 | 0 | 1.7 | 13.0 | 0.03 | 0.03 | 0.03 | 75 | 1021.6 |
| 20260506140118 | 38 | 0 | 0.0 | 0.0 | 0.00 | 0.00 | 0.00 | 63 | 1020.1 |
| 20260506130607 | 34 | 0 | 0.0 | 0.9 | 0.00 | 0.00 | 0.00 | 66 | 1019.0 |
| 20260506120607 | 33 | 0 | 0.0 | 0.0 | 0.00 | 0.00 | 0.00 | 66 | 1018.2 |
| 20260506120111 | 33 | 0 | 0.0 | 0.0 | 0.00 | 0.00 | 0.00 | 66 | 1018.1 |
| 20260506110607 | 36 | 0 | 0.0 | 1.7 | 0.00 | 0.00 | 0.00 | 62 | 1017.8 |
| 20260506110111 | 36 | 0 | 0.0 | 0.9 | 0.00 | 0.00 | 0.00 | 61 | 1017.8 |